Weather History for Joplin, MO

Change the Weather History Date:

Tuesday, November 13, 2012

  Actual Average Record
Temperature  
Mean Temperature 42 °F 50 °F  
Max Temperature 55 °F 60 °F 82 °F (1999)
Min Temperature 29 °F 39 °F 9 °F (1986)
Degree Days  
Heating Degree Days 23 16  
Month to date heating degree days 170 171  
Since 1 July heating degree days 494 423  
Cooling Degree Days 0 0  
Month to date cooling degree days 4 5  
Year to date cooling degree days 2106 1696  
Moisture  
Dew Point 26 °F    
Average Humidity 56    
Maximum Humidity 82    
Minimum Humidity 34    
Precipitation  
Precipitation 0.00 in 0.13 in 2.62 in (1985)
Month to date precipitation 1.13 1.72  
Year to date precipitation 36.78 41.67  
Snow  
Snow 0.00 in - - ()
Month to date snowfall 0.0  
Snow Depth 0.00 in    
Sea Level Pressure  
Sea Level Pressure 30.45 in    
Wind  
Wind Speed 5 mph (South)    
Max Wind Speed 13 mph    
Max Gust Speed 15 mph    
Visibility 10 miles    
Events      
T = Trace of Precipitation, MM = Missing Value Source: NWS Daily Summary

Daily Weather History Graph

Daily Weather History Graph

Search for Another Location

Airport:

Trip Planner

Search our weather history database for the weather conditions in past years. The results will help you decide how hot, cold, wet, or windy it might be!

Date:

Astronomy

Nov. 13, 2012 Rise Set
Actual Time 6:55 AM CST 5:08 PM CST
Civil Twilight 6:27 AM CST 5:36 PM CST
Nautical Twilight 5:56 AM CST 6:07 PM CST
Astronomical Twilight 5:25 AM CST 6:38 PM CST
Moon 6:34 AM CST (11/13) 5:03 PM CST (11/13)
Length of Visible Light 11h 09m
Length of Day
10h 13m
Waning Crescent, 0% of the Moon is Illuminated
Nov 13
Waning Crescent
Nov 13
New
Nov 20
First Quarter
Nov 28
Full
Dec 6
Last Quarter

Hourly Weather History & Observations

Time (CST) Temp. Windchill Dew Point Humidity Pressure Visibility Wind Dir Wind Speed Gust Speed Precip Events Conditions
12:53 AM 33.1 °F 28.7 °F 25.0 °F 72% 30.48 in 10.0 mi SSW 4.6 mph - N/A   Clear
1:53 AM 32.0 °F 27.5 °F 25.0 °F 75% 30.48 in 10.0 mi South 4.6 mph - N/A   Clear
2:53 AM 30.9 °F 26.2 °F 25.0 °F 79% 30.49 in 10.0 mi South 4.6 mph - N/A   Clear
3:53 AM 30.9 °F - 25.0 °F 79% 30.49 in 10.0 mi Calm Calm - N/A   Clear
4:53 AM 30.0 °F 26.5 °F 25.0 °F 82% 30.49 in 10.0 mi SSE 3.5 mph - N/A   Clear
5:53 AM 32.0 °F 26.4 °F 25.0 °F 75% 30.49 in 10.0 mi SSE 5.8 mph - N/A   Clear
6:53 AM 30.0 °F - 24.1 °F 79% 30.50 in 10.0 mi Calm Calm - N/A   Clear
7:53 AM 32.0 °F 26.4 °F 27.0 °F 82% 30.51 in 10.0 mi SSE 5.8 mph - N/A   Clear
8:53 AM 41.0 °F 36.4 °F 30.0 °F 65% 30.51 in 10.0 mi South 6.9 mph - N/A   Clear
9:53 AM 46.9 °F - 28.0 °F 48% 30.51 in 10.0 mi SSW 8.1 mph - N/A   Clear
10:53 AM 51.1 °F - 26.1 °F 38% 30.50 in 10.0 mi SW 10.4 mph - N/A   Clear
11:53 AM 53.1 °F - 26.1 °F 35% 30.47 in 10.0 mi SSW 6.9 mph - N/A   Clear
12:53 PM 54.0 °F - 27.0 °F 35% 30.43 in 10.0 mi SSW 10.4 mph - N/A   Clear
1:53 PM 54.0 °F - 26.1 °F 34% 30.41 in 10.0 mi SW 8.1 mph - N/A   Clear
2:53 PM 55.0 °F - 27.0 °F 34% 30.39 in 10.0 mi WSW 8.1 mph - N/A   Clear
3:53 PM 52.0 °F - 24.1 °F 34% 30.38 in 10.0 mi Calm Calm - N/A   Clear
4:53 PM 50.0 °F - 24.1 °F 36% 30.37 in 10.0 mi Calm Calm - N/A   Clear
5:53 PM 46.0 °F 44.8 °F 25.0 °F 44% 30.38 in 10.0 mi ESE 3.5 mph - N/A   Clear
6:53 PM 46.0 °F 44.8 °F 24.1 °F 42% 30.40 in 10.0 mi SE 3.5 mph - N/A   Clear
7:53 PM 41.0 °F - 28.0 °F 60% 30.43 in 10.0 mi Calm Calm - N/A   Clear
8:53 PM 43.0 °F 40.3 °F 25.0 °F 49% 30.42 in 10.0 mi SE 4.6 mph - N/A   Clear
9:53 PM 45.0 °F 40.1 °F 25.0 °F 46% 30.42 in 10.0 mi SSE 9.2 mph - N/A   Clear
10:53 PM 39.9 °F 35.8 °F 27.0 °F 60% 30.42 in 10.0 mi SSW 5.8 mph - N/A   Clear
11:53 PM 39.9 °F 37.8 °F 27.0 °F 60% 30.42 in 10.0 mi ESE 3.5 mph - N/A   Clear